Station SBIO1 - South Bass Island, OH Image indicating link to RSS feed of recent meteorological observations for station SBIO1


Conditions at SBIO1 as of
(11:00 pm EDT on 05/26/2024)
0300 GMT on 05/27/2024:
     

Click on the graph icon in the table below to see a time series plot of the last five days of that observation.

5-day plot - Wind Direction Wind Direction (WDIR):WSW ( 250 deg true )
5-day plot - Wind Speed Wind Speed (WSPD):7.2 m/s
5-day plot - Wind Gust Wind Gust (GST):7.7 m/s
5-day plot - Atmospheric Pressure Atmospheric Pressure (PRES):1002.3 mb
5-day plot - Pressure Tendency Pressure Tendency (PTDY): +3.2 mb ( Rising Rapidly )
5-day plot - Air Temperature Air Temperature (ATMP): 18.7 °C
5-day plot - Wind Speed at 10 Meters Wind Speed at 10 meters (WSPD10M): 7 m/s
5-day plot - Wind Speed at 20 Meters Wind Speed at 20 meters (WSPD20M): 7 m/s
5-day plot -  Wind Speed, Wind Gust and Atmospheric Pressure Combined plot of Wind Speed, Gust, and Air Pressure
Continuous Winds
TIME
(EDT)
5-day plot - Wind Direction WDIR 5-day plot - Wind Speed WSPD
11:00 pmWSW ( 248 deg ) 7.7 m/s
10:50 pmWSW ( 244 deg ) 8.2 m/s
10:40 pmWSW ( 258 deg ) 6.2 m/s
10:30 pmW ( 273 deg ) 4.6 m/s
10:20 pmWSW ( 257 deg ) 4.6 m/s
10:10 pmWSW ( 244 deg ) 3.6 m/s
 
Peak gust during the measurement hour
TIME
(EDT)
5-day plot - Gust Direction GDR 5-day plot - Gust Speed GST
10:43 pmWSW ( 240 deg ) 9.3 m/s
Previous observations
TIME
(EDT)
5-day plot - Wind Direction
WDIR
 
5-day plot - Wind Speed
WSPD
m/s
5-day plot - Wind Gust
GST
m/s
5-day plot - Wave Height
WVHT
m
5-day plot - Dominant Wave Period
DPD
sec
5-day plot - Average Wave Period
APD
sec
5-day plot - Mean Wave Direction
MWD
 
5-day plot - Atmospheric Pressure
PRES
mb
5-day plot - Pressure Tendency
PTDY
mb
5-day plot - Air Temperature
ATMP
°C
5-day plot - Water Temperature
WTMP
°C
5-day plot - Dew Point
DEWP
°C
5-day plot - Salinity
SAL
psu
5-day plot - Visibility
VIS
km
5-day plot - Tide (above MLLW)
TIDE
m
2024-05-26 10:00 pmWSW 3 3----1002.0 +1.6 18.1-----
2024-05-26 09:00 pmNNW 10 12----999.5 -2.1 18.5-----
2024-05-26 08:00 pm SE 10 11----999.1 -3.9 18.9-----
2024-05-26 07:00 pmENE 8 11----1000.4 -4.0 19.7-----
2024-05-26 06:00 pmENE 7 10----1001.6 -3.9 20.0-----
2024-05-26 05:00 pmENE 7 11----1003.0 -4.6 20.2-----
2024-05-26 04:00 pmENE 8 12----1004.4 -4.5 20.6-----
2024-05-26 03:00 pmENE 8 11----1005.5 -4.5 20.9-----
2024-05-26 02:00 pmENE 6 9----1007.6 -2.7 21.1-----
2024-05-26 01:00 pmENE 7 9----1008.9 -1.7 20.5-----
2024-05-26 12:00 pmENE 5 7----1010.0 -1.4 20.6-----
2024-05-26 11:00 amENE 5 7----1010.3 -0.9 20.4-----
2024-05-26 10:00 amENE 5 6----1010.6 -0.4 20.4-----
2024-05-26 09:00 am E 4 5----1011.4 +0.0 20.4-----
2024-05-26 08:00 am E 7 8----1011.2 +0.0 20.0-----
2024-05-26 07:00 am E 5 6----1011.0 -0.7 19.6-----
2024-05-26 06:00 amENE 4 5----1011.3 -0.8 19.1-----
2024-05-26 05:00 am NE 3 4----1011.3 -0.7 19.5-----
2024-05-26 04:00 am N 3 4----1011.7 +0.0 20.4-----
2024-05-26 03:00 amNNE 3 4----1012.1 +0.6 21.0-----
2024-05-26 02:00 am NE 3 3----1012.0 +0.6 20.7-----
2024-05-26 01:00 am NE 3 3----1011.7 +1.0 21.1-----
2024-05-26 12:00 amENE 3 4----1011.5 +1.6 21.7-----
2024-05-25 11:00 pmNNE 3 5----1011.4 +2.2 22.2-----